BEIDOU-3 M13

Last updated on Mon Sep 21 2026 00:02:49 GMT+0000 (Coordinated Universal Time)

1 43622U 18072A 26261.96604742 -.00000016 00000+0 00000+0 0 9996 2 43622 56.7109 59.5699 0004097 325.8897 34.1026 1.86231216 54401
UTC large
Height (km)
Speed (km/s)
/
Latitude / Longitude
Inclination (degrees)
Orbital Period (minutes)
Azimuth
Elevation
Range (km)
Doppler Factor

Next 0 passes for location: London (51.5072 / 0.1276)

No passes found over London.
BEIDOU-3 M13